Location: Oakhurst
(33.6448°N, 111.9543°W)
Time: 06:30:39
(UTC+00:00)

Max Valier Satellite - Pass Details

Date: 27 July 2021
Orbit: 486 x 502 km, 97.2° (Epoch: 23 September)

Event Time Altitude Azimuth Distance (km) Brightness Sun altitude
Exits shadow 04:06:10 18° 193° (SSW) 1,232 ? -17.6°
Maximum altitude 04:08:31 46° 261° (W) 656 ? -17.9°
Drops below altitude 10° 04:12:00 10° 336° (NNW) 1,675 ? -18.5°
Sets 04:14:08 0° 342° (NNW) 2,561 ? -18.8°
